TimeCDT,TemperatureF,Dew PointF,Humidity,Sea Level PressureIn,VisibilityMPH,Wind Direction,Wind SpeedMPH,Gust SpeedMPH,PrecipitationIn,Events,Conditions,WindDirDegrees,DateUTC
12:55 AM,21.0,18.0,88,30.39,10.0,Calm,Calm,-,N/A,,Partly Cloudy,0,2013-03-27 05:55:00
1:55 AM,25.0,19.0,78,30.37,10.0,Calm,Calm,-,N/A,,Clear,0,2013-03-27 06:55:00
2:55 AM,23.0,19.0,85,30.36,10.0,Calm,Calm,-,N/A,,Clear,0,2013-03-27 07:55:00
3:55 AM,21.0,18.0,88,30.37,10.0,Calm,Calm,-,N/A,,Clear,0,2013-03-27 08:55:00
4:55 AM,21.0,18.0,88,30.36,10.0,Calm,Calm,-,N/A,,Clear,0,2013-03-27 09:55:00
5:55 AM,21.9,19.9,92,30.37,8.0,Calm,Calm,-,N/A,,Clear,0,2013-03-27 10:55:00
6:55 AM,19.0,17.1,92,30.38,6.0,Calm,Calm,-,N/A,,Clear,0,2013-03-27 11:55:00
7:17 AM,19.4,17.6,93,30.33,2.0,Calm,Calm,-,N/A,,Clear,0,2013-03-27 12:17:00
7:26 AM,19.4,17.6,93,30.34,0.8,Calm,Calm,-,N/A,,Clear,0,2013-03-27 12:26:00
7:38 AM,19.4,17.6,93,30.34,0.5,Calm,Calm,-,N/A,Fog,Light Freezing Fog,0,2013-03-27 12:38:00
7:45 AM,21.2,19.4,93,30.34,1.2,South,3.5,-,N/A,,Clear,170,2013-03-27 12:45:00
7:51 AM,21.2,19.4,93,30.34,3.0,Calm,Calm,-,N/A,,Clear,0,2013-03-27 12:51:00
7:55 AM,21.9,19.9,92,30.40,4.0,Calm,Calm,-,N/A,,Clear,0,2013-03-27 12:55:00
8:55 AM,30.0,24.1,79,30.40,10.0,SSW,4.6,-,N/A,,Clear,200,2013-03-27 13:55:00
9:55 AM,34.0,24.1,67,30.41,10.0,South,6.9,-,N/A,,Clear,190,2013-03-27 14:55:00
10:55 AM,36.0,25.0,64,30.41,10.0,SSE,6.9,-,N/A,,Clear,160,2013-03-27 15:55:00
11:55 AM,37.9,25.0,60,30.41,10.0,South,5.8,-,N/A,,Clear,190,2013-03-27 16:55:00
12:55 PM,39.0,25.0,57,30.40,10.0,South,4.6,-,N/A,,Clear,190,2013-03-27 17:55:00
1:55 PM,39.9,28.0,63,30.36,10.0,SE,8.1,-,N/A,,Clear,140,2013-03-27 18:55:00
2:55 PM,43.0,28.9,58,30.34,10.0,SE,8.1,-,N/A,,Clear,130,2013-03-27 19:55:00
3:55 PM,44.1,28.9,55,30.32,10.0,SSE,5.8,-,N/A,,Clear,160,2013-03-27 20:55:00
4:55 PM,44.1,28.0,53,30.31,10.0,ESE,6.9,-,N/A,,Clear,110,2013-03-27 21:55:00
5:55 PM,42.1,30.0,62,30.32,10.0,SSE,9.2,-,N/A,,Mostly Cloudy,150,2013-03-27 22:55:00
6:55 PM,39.9,30.0,68,30.32,10.0,SSE,5.8,-,N/A,,Overcast,150,2013-03-27 23:55:00
7:55 PM,39.0,28.9,67,30.32,10.0,ESE,6.9,-,N/A,,Overcast,110,2013-03-28 00:55:00
8:55 PM,39.0,28.9,67,30.34,10.0,SSW,3.5,-,N/A,,Overcast,210,2013-03-28 01:55:00
9:55 PM,37.9,28.0,68,30.35,10.0,SSE,3.5,-,N/A,,Overcast,150,2013-03-28 02:55:00
10:55 PM,37.0,28.9,73,30.35,10.0,ESE,4.6,-,N/A,,Overcast,120,2013-03-28 03:55:00
11:55 PM,37.0,28.0,70,30.35,10.0,ESE,4.6,-,N/A,,Overcast,110,2013-03-28 04:55:00